Molėtai

Lithuania     55˚13′45″N   25˚25′03″E
temp.,
°C
wind,
m/s
gust,
m/s
humid.,
%
clouds,
%
prec.,
mm/h
press.,
hPa
HPBL,
m
27 november, fri
fri2723:00+2˚ssw5889100 0.0 1012286
02:00+2˚sw51093100 1.3 1010414
05:00+3˚wsw51096100 3.6 1009456
08:00+4˚w51096100 4.8 1009528
11:00+4˚nw6108395 1.0 10101018
14:00+4˚nw6107298 1.2 10111215
17:00+1˚nnw6118998 0.6 1013828
20:00nnw378199 0.6 1013645
28 november, sat
sat2823:00−1˚n378997 0.0 1015458
02:00−1˚n369477 0.0 1016332
05:00−1˚n378966 0.0 1017460
08:00−1˚n369483 0.1 1019356
11:00+1˚n479598 0.9 1019366
14:00+1˚nne4796100 1.3 1020395
17:00+1˚nne4896100 0.4 1020456
20:00+1˚ne479596 0.4 1021549
29 november, sun
sun2923:00+1˚ene4797100 0.5 1022426
02:00−1˚ene368798 0.5 1023519
05:00−1˚ene379494 0.1 1022438
08:00e478891 0.3 1022533
11:00ene4786100 0.0 1023686
14:00ene3687100 0.1 1022552
17:00ne4789100 0.1 1022565
20:00−1˚nne369198 0.2 1022337
30 november, mon
mon3023:00−1˚n359097 0.1 1021375
02:00−1˚nnw239698 0.4 1021218
05:00−1˚w2496100 0.8 1020248
08:00−2˚wnw3596100 2.1 1021329
11:00−1˚wsw3594100 0.6 1022423
14:00−1˚wsw4794100 1.4 1023531
17:00−2˚sw3896100 0.4 1023458
20:00−2˚sw499399 0.6 1024489
1 december, tue
tue123:00−2˚ssw489089 0.0 1025332
02:00−3˚ssw399359 0.0 1025323
05:00−4˚ssw38940 0.0 1026286
08:00−4˚s389425 0.0 1026301
11:00−2˚s368192 0.0 1027653
14:00−1˚s357696 0.0 1028755
17:00−2˚sse3579100 0.0 1028538
20:00−2˚se3685100 0.0 1030397